Погода в Афипском

Россия / Краснодарский край     44°54′12″N   38°50′28″E
темп.,
°C
ветер,
м/с
пор.,
м/с
влажн.,
%
обл.,
%
осадки,
мм/ч
давл.,
гПа
погр.,
м
18 апреля, вс
вс1800:00+10юв3885100 0.0 1020248
03:00+10в4986100 0.1 1018319
06:00+9в3792100 0.2 1017304
09:00+10св2493100 0.6 1017313
12:00+10в2494100 0.9 1017253
15:00+12вюв349098 2.3 1016272
18:00+13всв348843 0.0 1016296
21:00+11св2396100 0.0 101644
19 апреля, пн
пн1900:00+10юз1197100 0.1 101617
03:00+12зсз3398100 1.0 1016111
06:00+12ссз0198100 0.7 101615
09:00+13ссв2296100 1.1 1015111
12:00+14юз1392100 0.8 1015420
15:00+14зсз2396100 1.2 1014207
18:00+13с2296100 0.4 1014104
21:00+12всв2499100 1.6 1014150
20 апреля, вт
вт2000:00+13всв2599100 1.6 1010182
03:00+12ю2297100 3.1 100838
06:00+12в2697100 0.1 1004169
09:00+17ююз278057 0.1 1003445
12:00+19з686810 0.0 1004931
15:00+18зюз8135998 0.0 10061193
18:00+14ююз5106799 0.0 1008532
21:00+12ююз9167335 0.0 10101142
21 апреля, ср
ср2100:00+10юз815761 0.0 1012990
03:00+10юз6128068 0.0 1015751
06:00+10юз498365 0.0 1017629
09:00+12зюз467293 0.1 1018691
12:00+15зюз685693 0.1 10191882
15:00+16зюз675447 0.1 10191584
18:00+14зюз46684 0.0 1020376
21:00+9з33820 0.0 102246
22 апреля, чт
чт2200:00+8з01872 0.0 102211
03:00+7зсз008898 0.0 102210
06:00+8в1188100 0.0 102313
09:00+12всв2370100 0.0 1023475
12:00+16всв116213 0.0 10221076
15:00+18ссз22525 0.2 10211549
18:00+16с126728 0.7 102185
21:00+11зсз22852 1.0 102230